Regional Weather Roundup
Issued by NWS

Home | Current Version | Previous Version | Text Only | Print | Product List | Glossary Off
Versions: 1 2 3 4 5 6 7 8 9 10 11 12 13 14 15 16 17 18 19 20 21 22 23 24 25 26 27 28 29 30 31 32 33 34 35 36 37 38 39 40 41 42 43 44 45 46 47 48 49 50

000
ASUS43 KLMK 231302
RWRKY
KENTUCKY REGIONAL WEATHER ROUNDUP
NATIONAL WEATHER SERVICE LOUISVILLE KY
800 AM EST SUN NOV 23 2014

NOTE "FAIR" INDICATES FEW OR NO CLOUDS BELOW 12,000 FEET
WITH NO SIGNIFICANT WEATHER AND/OR OBSTRUCTIONS TO VISIBILITY.

KYZ001>023-026-027-061>063-070>075-231400-
WESTERN AND SOUTH CENTRAL KENTUCKY

CITY           SKY/WX    TMP DP  RH WIND       PRES   REMARKS
PADUCAH        CLOUDY    57  47  69 SE10      29.79F
HENDERSON      CLOUDY    54  37  54 SE14      29.86F
OWENSBORO      LGT RAIN  53  43  69 SE9       29.89F
HOPKINSVILLE   CLOUDY    51  46  83 E7        29.86F
BOWLING GREEN  CLOUDY    51  42  71 E5        29.92F
GLASGOW        NOT AVBL
$$

KYZ024-025-028>034-038-045-046-053-231400-
NORTH CENTRAL KENTUCKY

CITY           SKY/WX    TMP DP  RH WIND       PRES   REMARKS
LOUISVILLE/SDF CLOUDY    52  41  66 SE6       29.95F
LOUISVILLE/LOU CLOUDY    54  41  61 SE6       29.96F
FORT KNOX      CLOUDY    52  40  64 E9        29.93F
$$

KYZ035>037-039>044-047>052-055>060-089>105-231400-
NORTHEAST KENTUCKY

CITY           SKY/WX    TMP DP  RH WIND       PRES   REMARKS
LEXINGTON      MOCLDY    48  37  65 SE6       30.00F
COVINGTON      CLOUDY    52  40  63 S9        29.99R
FRANKFORT      MOCLDY    49  37  63 SE7       29.98F
$$

KYZ054-064>069-076>088-106>120-231400-
SOUTHEAST KENTUCKY

CITY           SKY/WX    TMP DP  RH WIND       PRES   REMARKS
JACKSON        MOCLDY    49  32  52 SE5       30.04F
LONDON         CLOUDY    50  35  56 E5        30.02F
SOMERSET       NOT AVBL
MIDDLESBORO    CLOUDY    47  36  66 W3        30.06F
MONTICELLO     CLOUDY    53  45  74 CALM      30.02S
$$



USA.gov is the U.S. government's official web portal to all federal, state and local government web resources and services.